K4FB Weather Reports


time (UTC)temp
C
wind
direction
speed
KPH
gust
KPH
rain 1hr
cm
rain 24hr
cm
rain mn
cm
humidity
%
barometer
mb
20260508174006 35 244 6.4 16.1 0.00 0.00 0.00 47 1015.0
20260508173504 35 300 4.8 14.5 0.00 0.00 0.00 47 1015.0
20260508173032 34 229 4.8 12.9 0.00 0.00 0.00 47 1015.2
20260508172506 34 352 4.8 12.9 0.00 0.00 0.00 45 1015.3
20260508172007 34 240 0.0 11.3 0.00 0.00 0.00 50 1015.3
20260508171526 33 187 3.2 14.5 0.00 0.00 0.00 50 1015.4
20260508171007 33 310 1.6 14.5 0.00 0.00 0.00 48 1015.6
20260508170507 33 286 4.8 14.5 0.00 0.00 0.00 49 1015.6
20260508170027 33 321 6.4 14.5 0.00 0.00 0.00 51 1015.6
20260508165509 33 263 1.6 16.1 0.00 0.00 0.00 56 1015.6
20260508165009 33 281 4.8 16.1 0.00 0.00 0.00 49 1015.8
20260508164523 33 253 4.8 19.3 0.00 0.00 0.00 54 1016.0
20260508164009 32 282 8.0 19.3 0.00 0.00 0.00 51 1016.0
20260508163511 33 271 4.8 20.9 0.00 0.00 0.00 50 1016.0
20260508163022 32 334 6.4 20.9 0.00 0.00 0.00 49 1016.2
20260508162505 32 319 3.2 14.5 0.00 0.00 0.00 51 1016.3
20260508162007 32 315 4.8 14.5 0.00 0.00 0.00 52 1016.4
20260508161527 32 326 3.2 17.7 0.00 0.00 0.00 56 1016.5
20260508161007 32 322 8.0 17.7 0.00 0.00 0.00 54 1016.5
20260508160508 32 232 4.8 12.9 0.00 0.00 0.00 56 1016.5
20260508160028 32 351 3.2 12.9 0.00 0.00 0.00 56 1016.5
20260508155506 31 225 3.2 17.7 0.00 0.00 0.00 57 1016.7
20260508155011 31 285 3.2 17.7 0.00 0.00 0.00 55 1016.7
20260508154526 31 292 3.2 12.9 0.00 0.00 0.00 57 1016.7
20260508154006 31 232 1.6 16.1 0.00 0.00 0.00 59 1016.8
20260508153510 31 10 6.4 16.1 0.00 0.00 0.00 59 1017.0
20260508153037 30 352 4.8 17.7 0.00 0.00 0.00 61 1017.0
20260508152514 30 335 1.6 17.7 0.00 0.00 0.00 58 1017.0
20260508152007 31 242 6.4 16.1 0.00 0.00 0.00 59 1017.0
20260508151524 30 262 6.4 14.5 0.00 0.00 0.00 63 1017.1
20260508151011 30 360 1.6 14.5 0.00 0.00 0.00 64 1017.1
20260508150510 29 36 4.8 14.5 0.00 0.00 0.00 66 1017.1
20260508150021 29 300 4.8 14.5 0.00 0.00 0.00 64 1016.9
20260508145507 29 278 4.8 14.5 0.00 0.00 0.00 66 1017.0
20260508145011 29 69 1.6 16.1 0.00 0.00 0.00 67 1017.1
20260508144521 28 321 9.7 16.1 0.00 0.00 0.00 68 1017.1
20260508144004 28 346 6.4 14.5 0.00 0.00 0.00 68 1017.1
20260508143505 28 306 4.8 12.9 0.00 0.00 0.00 70 1017.2
20260508142505 28 352 3.2 11.3 0.00 0.00 0.00 74 1017.3
20260508142004 27 267 3.2 11.3 0.00 0.00 0.00 75 1017.3
20260508141516 27 360 4.8 12.9 0.00 0.00 0.00 75 1017.3
20260508141005 27 312 1.6 12.9 0.00 0.00 0.00 75 1017.3
20260508140013 27 277 6.4 16.1 0.00 0.00 0.00 76 1017.4
20260508135508 27 315 6.4 17.7 0.00 0.00 0.00 76 1017.4
20260508134503 26 331 4.8 16.1 0.00 0.00 0.00 80 1017.3
20260508134004 26 290 4.8 16.1 0.00 0.00 0.00 80 1017.2
20260508133507 26 294 3.2 16.1 0.00 0.00 0.00 82 1017.2
20260508133010 26 333 6.4 14.5 0.00 0.00 0.00 83 1017.1
20260508132505 26 338 6.4 14.5 0.00 0.00 0.00 82 1017.1
20260508132004 25 332 4.8 14.5 0.00 0.00 0.00 83 1017.2
20260508131516 25 319 3.2 8.0 0.00 0.00 0.00 84 1017.1
20260508131004 25 305 3.2 12.9 0.00 0.00 0.00 87 1017.1
20260508130024 25 306 3.2 12.9 0.00 0.00 0.00 87 1017.2
20260508125503 25 330 3.2 11.3 0.00 0.00 0.00 88 1017.1
20260508125009 25 284 3.2 12.9 0.00 0.00 0.00 88 1017.1
20260508124520 25 263 4.8 12.9 0.00 0.00 0.00 90 1017.0
20260508124009 24 288 1.6 9.7 0.00 0.00 0.00 91 1017.0
20260508123503 23 329 3.2 11.3 0.00 0.00 0.00 93 1017.0
20260508123010 23 271 3.2 11.3 0.00 0.00 0.00 95 1017.0
20260508122503 23 300 1.6 9.7 0.00 0.00 0.00 97 1016.8
20260508122006 22 306 0.0 6.4 0.00 0.00 0.00 97 1016.8
20260508121515 22 308 1.6 6.4 0.00 0.00 0.00 97 1016.8
20260508121003 22 309 1.6 6.4 0.00 0.00 0.00 97 1016.7
20260508120507 22 286 1.6 6.4 0.00 0.00 0.00 97 1016.5
20260508120012 21 269 0.0 4.8 0.00 0.00 0.00 97 1016.4
20260508115509 21 271 0.0 4.8 0.00 0.00 0.00 96 1016.5
20260508114511 20 271 0.0 0.0 0.00 0.00 0.00 96 1016.3
20260508114008 20 271 0.0 0.0 0.00 0.00 0.00 96 1016.2
20260508113507 20 271 0.0 0.0 0.00 0.00 0.00 96 1016.2
20260508113022 19 271 0.0 0.0 0.00 0.00 0.00 96 1016.1
20260508112508 19 271 0.0 0.0 0.00 0.00 0.00 96 1016.1
20260508112007 19 271 0.0 0.0 0.00 0.00 0.00 96 1015.9
20260508111521 18 271 0.0 0.0 0.00 0.00 0.00 95 1015.9
20260508111011 18 271 0.0 0.0 0.00 0.00 0.00 95 1015.8
20260508110509 18 271 0.0 0.0 0.00 0.00 0.00 95 1015.9
20260508110020 18 271 0.0 0.0 0.00 0.00 0.00 95 1015.8
20260508105509 18 271 0.0 0.0 0.00 0.00 0.00 94 1015.7
20260508105009 18 271 0.0 0.0 0.00 0.00 0.00 94 1015.6
20260508104521 18 271 0.0 0.0 0.00 0.00 0.00 95 1015.5
20260508104011 18 271 0.0 0.0 0.00 0.00 0.00 95 1015.4
20260508103507 18 271 0.0 0.0 0.00 0.00 0.00 95 1015.5
20260508103021 18 271 0.0 0.0 0.00 0.00 0.00 94 1015.5
20260508102010 18 271 0.0 0.0 0.00 0.00 0.00 94 1015.3
20260508101524 18 271 0.0 0.0 0.00 0.00 0.00 94 1015.2
20260508101008 18 271 0.0 0.0 0.00 0.00 0.00 94 1015.2
20260508100026 18 271 0.0 0.0 0.00 0.00 0.00 93 1015.1
20260508095510 18 271 0.0 0.0 0.00 0.00 0.00 94 1015.0
20260508095006 18 271 0.0 0.0 0.00 0.00 0.00 94 1015.0
20260508094524 18 271 0.0 0.0 0.00 0.00 0.00 94 1015.0
20260508094008 18 271 0.0 0.0 0.00 0.00 0.00 94 1014.9
20260508093507 18 271 0.0 0.0 0.00 0.00 0.00 94 1014.8
20260508093024 18 271 0.0 0.0 0.00 0.00 0.00 94 1014.9
20260508092508 18 271 0.0 0.0 0.00 0.00 0.00 93 1014.8
20260508092010 18 271 0.0 0.0 0.00 0.00 0.00 93 1014.7
20260508091007 18 271 0.0 0.0 0.00 0.00 0.00 93 1014.7
20260508090508 18 271 0.0 0.0 0.00 0.00 0.00 93 1014.7
20260508090029 18 271 0.0 0.0 0.00 0.00 0.00 93 1014.6
20260508085508 18 271 0.0 0.0 0.00 0.00 0.00 93 1014.6
20260508085007 18 271 0.0 0.0 0.00 0.00 0.00 93 1014.6
20260508084528 18 271 0.0 0.0 0.00 0.00 0.00 93 1014.6
20260508084009 18 271 0.0 0.0 0.00 0.00 0.00 93 1014.6
20260508083504 18 271 0.0 0.0 0.00 0.00 0.00 92 1014.6
20260508083011 18 271 0.0 0.0 0.00 0.00 0.00 93 1014.6
20260508082508 18 271 0.0 0.0 0.00 0.00 0.00 93 1014.5
20260508082012 18 271 0.0 0.0 0.00 0.00 0.00 92 1014.5
20260508081507 18 271 0.0 0.0 0.00 0.00 0.00 92 1014.4
20260508081004 18 271 0.0 0.0 0.00 0.00 0.00 92 1014.5
20260508080510 18 271 0.0 0.0 0.00 0.00 0.00 92 1014.6
20260508080007 19 271 0.0 0.0 0.00 0.00 0.00 92 1014.5
20260508075504 19 271 0.0 0.0 0.00 0.00 0.00 92 1014.5
20260508075007 18 271 0.0 0.0 0.00 0.00 0.00 92 1014.7
20260508074510 19 271 0.0 0.0 0.00 0.00 0.00 92 1014.6
20260508073508 19 271 0.0 0.0 0.00 0.00 0.00 91 1014.8
20260508073016 19 271 0.0 0.0 0.00 0.00 0.00 92 1014.8
20260508072506 19 271 0.0 0.0 0.00 0.00 0.00 91 1014.9
20260508072007 19 271 0.0 0.0 0.00 0.00 0.00 92 1014.9
20260508071525 19 271 0.0 0.0 0.00 0.00 0.00 91 1014.9
20260508071009 19 271 0.0 0.0 0.00 0.00 0.00 91 1014.9
20260508070504 19 271 0.0 0.0 0.00 0.00 0.00 91 1014.9
20260508070014 19 271 0.0 0.0 0.00 0.00 0.00 91 1015.0
20260508065504 19 271 0.0 0.0 0.00 0.00 0.00 91 1015.1
20260508065006 19 271 0.0 0.0 0.00 0.00 0.00 90 1014.9
20260508064512 19 271 0.0 0.0 0.00 0.00 0.00 90 1015.0
20260508064005 19 271 0.0 0.0 0.00 0.00 0.00 90 1014.9
20260508063508 19 271 0.0 0.0 0.00 0.00 0.00 89 1015.1
20260508062507 19 271 0.0 0.0 0.00 0.00 0.00 88 1015.1
20260508062007 19 271 0.0 0.0 0.00 0.00 0.00 88 1015.2
20260508061522 19 271 0.0 0.0 0.00 0.00 0.00 88 1015.1
20260508061004 20 271 0.0 0.0 0.00 0.00 0.00 87 1015.4
20260508060508 20 271 0.0 0.0 0.00 0.00 0.00 88 1015.4
20260508060026 20 271 0.0 0.0 0.00 0.00 0.00 87 1015.4
20260508055503 20 271 0.0 0.0 0.00 0.00 0.00 86 1015.3
20260508054510 20 271 0.0 0.0 0.00 0.00 0.00 85 1015.4
20260508054004 20 271 0.0 0.0 0.00 0.00 0.00 85 1015.5
20260508053507 20 271 0.0 0.0 0.00 0.00 0.00 85 1015.6
20260508053014 20 271 0.0 0.0 0.00 0.00 0.00 84 1015.7
20260508052505 21 271 0.0 0.0 0.00 0.00 0.00 84 1015.6
20260508052007 21 271 0.0 0.0 0.00 0.00 0.00 83 1015.5
20260508051521 21 271 0.0 0.0 0.00 0.00 0.00 83 1015.6
20260508051008 21 271 0.0 0.0 0.00 0.00 0.00 82 1015.6
20260508050508 21 271 0.0 0.0 0.00 0.00 0.00 81 1015.6
20260508045008 22 271 0.0 0.0 0.00 0.00 0.00 80 1015.7
20260508044523 22 271 0.0 0.0 0.00 0.00 0.00 79 1015.6
20260508044006 22 271 0.0 1.6 0.00 0.00 0.00 79 1015.6
20260508043014 22 270 0.0 4.8 0.00 0.00 0.00 78 1015.7
20260508042505 22 267 0.0 4.8 0.00 0.00 0.00 77 1015.8
20260508042009 22 263 1.6 4.8 0.00 0.00 0.00 77 1015.8
20260508041512 22 259 0.0 9.7 0.00 0.00 0.00 76 1015.7
20260508041007 23 263 1.6 9.7 0.00 0.00 0.00 76 1015.6
20260508040508 23 270 1.6 6.4 0.00 0.00 0.00 75 1015.7
20260508040021 23 241 1.6 11.3 0.00 0.00 0.00 75 1015.8
20260508035507 23 267 1.6 11.3 0.00 0.00 0.00 75 1015.9
20260508035010 23 278 3.2 6.4 0.00 0.00 0.00 74 1015.9
20260508034008 23 275 1.6 4.8 0.00 0.00 0.00 73 1015.6
20260508033514 23 286 0.0 4.8 0.00 0.00 0.00 73 1015.7
20260508033012 23 287 0.0 4.8 0.00 0.00 0.00 72 1015.7
20260508032512 23 290 1.6 9.7 0.00 0.00 0.00 72 1015.7
20260508032008 23 273 0.0 9.7 0.00 0.00 0.00 72 1015.6
20260508031511 23 283 1.6 9.7 0.00 0.00 0.00 72 1015.5
20260508031005 23 275 1.6 8.0 0.00 0.00 0.00 72 1015.4
20260508030508 23 253 1.6 6.4 0.00 0.00 0.00 72 1015.4
20260508030016 23 298 1.6 9.7 0.00 0.00 0.00 72 1015.5
20260508025009 24 275 1.6 9.7 0.00 0.00 0.00 71 1015.4
20260508024523 24 303 1.6 8.0 0.00 0.00 0.00 71 1015.4
20260508024008 24 304 1.6 6.4 0.00 0.00 0.00 70 1015.5
20260508023507 24 301 1.6 6.4 0.00 0.00 0.00 70 1015.5
20260508023024 24 284 0.0 4.8 0.00 0.00 0.00 69 1015.5
20260508022510 24 284 1.6 6.4 0.00 0.00 0.00 69 1015.5
20260508021522 25 257 3.2 11.3 0.00 0.00 0.00 69 1015.3
20260508020509 25 240 4.8 11.3 0.00 0.00 0.00 67 1015.3
20260508020017 25 269 3.2 11.3 0.00 0.00 0.00 66 1015.3
20260508015504 25 255 3.2 11.3 0.00 0.00 0.00 67 1015.2
20260508015007 25 272 4.8 12.9 0.00 0.00 0.00 66 1015.1
20260508014515 25 261 4.8 12.9 0.00 0.00 0.00 66 1015.1
20260508014009 25 269 1.6 11.3 0.00 0.00 0.00 66 1015.2
20260508013507 25 263 1.6 9.7 0.00 0.00 0.00 65 1015.2
20260508013023 25 271 3.2 6.4 0.00 0.00 0.00 65 1015.2
20260508012508 25 273 1.6 6.4 0.00 0.00 0.00 63 1015.0
20260508012012 25 253 0.0 6.4 0.00 0.00 0.00 62 1014.9
20260508011537 26 248 1.6 6.4 0.00 0.00 0.00 61 1015.0
20260508011005 26 255 1.6 6.4 0.00 0.00 0.00 61 1015.1
20260508005504 26 279 3.2 11.3 0.00 0.00 0.00 57 1014.8
20260508004526 26 253 4.8 12.9 0.00 0.00 0.00 56 1014.9
20260508004006 27 284 3.2 17.7 0.00 0.00 0.00 56 1014.8
20260508003506 27 258 4.8 17.7 0.00 0.00 0.00 56 1014.7
20260508003019 27 269 4.8 16.1 0.00 0.00 0.00 56 1014.7
20260508002508 27 241 6.4 14.5 0.00 0.00 0.00 54 1014.8
20260508002009 27 258 4.8 12.9 0.00 0.00 0.00 52 1014.7
20260508001519 27 274 6.4 14.5 0.00 0.00 0.00 50 1014.7
20260508001007 28 257 4.8 16.1 0.00 0.00 0.00 50 1014.6
20260508000514 28 264 8.0 16.1 0.00 0.00 0.00 49 1014.6
20260508000025 28 221 6.4 16.1 0.00 0.00 0.00 47 1014.6
20260507235508 28 226 6.4 16.1 0.00 0.00 0.00 46 1014.5
20260507235010 28 205 6.4 16.1 0.00 0.00 0.00 46 1014.7
20260507234525 29 257 6.4 17.7 0.00 0.00 0.00 45 1014.6
20260507234007 29 246 4.8 17.7 0.00 0.00 0.00 45 1014.6
20260507233505 29 242 4.8 16.1 0.00 0.00 0.00 44 1014.6
20260507233009 30 249 3.2 19.3 0.00 0.00 0.00 43 1014.5
20260507232502 30 232 9.7 19.3 0.00 0.00 0.00 42 1014.5
20260507232002 30 254 11.3 22.5 0.00 0.00 0.00 41 1014.4
20260507231506 30 227 11.3 22.5 0.00 0.00 0.00 40 1014.4
20260507231002 31 242 9.7 20.9 0.00 0.00 0.00 39 1014.3
20260507230506 31 253 11.3 19.3 0.00 0.00 0.00 39 1014.3
20260507230005 32 197 9.7 17.7 0.00 0.00 0.00 38 1014.3
20260507225506 32 240 11.3 19.3 0.00 0.00 0.00 38 1014.3
20260507225005 33 258 9.7 22.5 0.00 0.00 0.00 37 1014.3
20260507224512 33 223 9.7 22.5 0.00 0.00 0.00 38 1014.3
20260507224004 33 225 11.3 17.7 0.00 0.00 0.00 37 1014.2
20260507223503 33 238 9.7 22.5 0.00 0.00 0.00 37 1014.2
20260507223018 34 250 11.3 22.5 0.00 0.00 0.00 37 1014.1
20260507222506 34 237 11.3 20.9 0.00 0.00 0.00 37 1014.2
20260507222003 35 248 8.0 20.9 0.00 0.00 0.00 37 1014.1
20260507221506 35 270 9.7 19.3 0.00 0.00 0.00 36 1014.1
20260507221003 35 285 8.0 19.3 0.00 0.00 0.00 37 1014.1
20260507220502 35 275 6.4 19.3 0.00 0.00 0.00 37 1014.1
20260507220007 35 268 9.7 19.3 0.00 0.00 0.00 36 1014.1
20260507215503 35 235 3.2 17.7 0.00 0.00 0.00 36 1014.2
20260507214506 35 317 8.0 22.5 0.00 0.00 0.00 35 1014.3
20260507214005 35 220 11.3 22.5 0.00 0.00 0.00 35 1014.2
20260507213506 35 257 6.4 16.1 0.00 0.00 0.00 36 1014.2
20260507213006 35 251 6.4 22.5 0.00 0.00 0.00 32 1014.2
20260507212009 36 270 8.0 20.9 0.00 0.00 0.00 34 1014.3
20260507211519 36 308 8.0 22.5 0.00 0.00 0.00 31 1014.4
20260507211004 36 254 9.7 22.5 0.00 0.00 0.00 30 1014.5
20260507210509 36 294 3.2 14.5 0.00 0.00 0.00 28 1014.4
20260507210005 36 312 1.6 22.5 0.00 0.00 0.00 25 1014.5
20260507205503 36 249 4.8 22.5 0.00 0.00 0.00 24 1014.6
20260507205002 36 232 8.0 16.1 0.00 0.00 0.00 22 1014.4
20260507204510 36 205 8.0 22.5 0.00 0.00 0.00 22 1014.5
20260507204007 36 308 8.0 22.5 0.00 0.00 0.00 18 1014.6
20260507203013 36 254 12.9 22.5 0.00 0.00 0.00 20 1014.8
20260507202503 36 264 11.3 27.4 0.00 0.00 0.00 23 1014.7
20260507202003 36 286 16.1 27.4 0.00 0.00 0.00 22 1014.7
20260507201008 36 262 12.9 25.7 0.00 0.00 0.00 24 1014.6
20260507200508 36 301 12.9 24.1 0.00 0.00 0.00 28 1014.7
20260507200010 36 352 12.9 24.1 0.00 0.00 0.00 26 1014.7
20260507195504 36 314 9.7 30.6 0.00 0.00 0.00 30 1014.6
20260507195008 36 259 11.3 29.0 0.00 0.00 0.00 32 1014.6
20260507194511 36 236 6.4 25.7 0.00 0.00 0.00 34 1014.7
20260507194003 36 254 11.3 25.7 0.00 0.00 0.00 32 1014.9
20260507193505 36 253 14.5 25.7 0.00 0.00 0.00 33 1015.0
20260507193015 36 209 11.3 25.7 0.00 0.00 0.00 35 1014.9
20260507192504 36 238 9.7 25.7 0.00 0.00 0.00 35 1014.9
20260507192009 36 221 11.3 24.1 0.00 0.00 0.00 36 1015.0
20260507191514 36 238 12.9 24.1 0.00 0.00 0.00 36 1015.1
20260507191007 36 160 3.2 20.9 0.00 0.00 0.00 41 1015.2
20260507190504 36 215 14.5 20.9 0.00 0.00 0.00 36 1015.3
20260507190016 36 196 11.3 22.5 0.00 0.00 0.00 36 1015.3
20260507185506 36 243 8.0 25.7 0.00 0.00 0.00 39 1015.4
20260507185005 36 238 9.7 25.7 0.00 0.00 0.00 36 1015.5
20260507184009 36 225 9.7 22.5 0.00 0.00 0.00 39 1015.7
20260507183504 36 197 8.0 20.9 0.00 0.00 0.00 42 1015.8
20260507183024 36 251 12.9 20.9 0.00 0.00 0.00 39 1015.8
20260507182505 35 221 9.7 19.3 0.00 0.00 0.00 43 1015.9
20260507182004 35 233 9.7 25.7 0.00 0.00 0.00 42 1016.0
20260507181508 35 200 6.4 25.7 0.00 0.00 0.00 42 1016.1
20260507181006 35 246 16.1 25.7 0.00 0.00 0.00 41 1016.1
20260507180507 35 183 12.9 24.1 0.00 0.00 0.00 45 1016.2
20260507180029 35 225 9.7 25.7 0.00 0.00 0.00 44 1016.3
20260507175507 34 248 12.9 29.0 0.00 0.00 0.00 44 1016.3
20260507174531 34 204 6.4 27.4 0.00 0.00 0.00 49 1016.3